Volkel, Netherlands

8:48 AM CET on February 23, 2017 (GMT +0100)
Volkel Air Base

Weather History for EHVK - October, 2012

Change the Weather History Date:

Monday, October 8, 2012

  Actual Average Record
Temperature  
Mean Temperature 44 °F -  
Max Temperature 55 °F 54 °F 66 °F (2005)
Min Temperature 33 °F 41 °F 33 °F (1996)
Degree Days  
Heating Degree Days 21    
Moisture  
Dew Point 39 °F    
Average Humidity 93    
Maximum Humidity 100    
Minimum Humidity 58    
Precipitation  
Precipitation 0.00 in - - ()
Sea Level Pressure  
Sea Level Pressure 30.14 in    
Wind  
Wind Speed 2 mph ()    
Max Wind Speed 8 mph    
Max Gust Speed -    
Visibility 3.8 miles    
Events Fog    
Averages and records for this station are not official NWS values.
T = Trace of Precipitation, MM = Missing Value Source: Averaged Metar Reports

Daily Weather History Graph

Daily Weather History Graph

Search for Another Location

Airport or City:

Trip Planner

Search our weather history database for the weather conditions in past years. The results will help you decide how hot, cold, wet, or windy it might be!

Date:

Astronomy

Oct. 08, 2012 Rise Set
Actual Time 7:50 AM CEST 6:58 PM CEST
Civil Twilight 7:16 AM CEST 7:31 PM CEST
Nautical Twilight 6:37 AM CEST 8:10 PM CEST
Astronomical Twilight 5:58 AM CEST 8:49 PM CEST
Moon No Moon Rise 3:21 PM CEST (10/8)
Length of Visible Light 12h 15m
Length of Day
11h 08m
Waning Gibbous, 49% of the Moon is Illuminated
Oct 8
Waning Gibbous
Oct 15
New
Oct 22
First Quarter
Oct 29
Full
Nov 7
Last Quarter

Hourly Weather History & Observations

Time (CEST) Temp. Windchill Dew Point Humidity Pressure Visibility Wind Dir Wind Speed Gust Speed Precip Events Conditions
12:10 AM 39.2 °F - 39.2 °F 100% 30.24 in 3.7 mi WSW 1.2 mph - N/A   Mostly Cloudy
12:11 AM 39.2 °F - 39.2 °F 100% 30.24 in 5.0 mi WSW 1.2 mph - N/A   Mostly Cloudy
12:25 AM 39.2 °F - 39.2 °F 100% 30.24 in 6.2 mi Calm Calm - N/A   Partly Cloudy
12:39 AM 39.2 °F - 39.2 °F 100% 30.24 in 3.7 mi SW 1.2 mph - N/A   Mist
12:43 AM 39.2 °F - 39.2 °F 100% 30.24 in - SW 1.2 mph - N/A   Mist
12:47 AM 41.0 °F - 39.2 °F 93% 30.24 in 5.0 mi SW 1.2 mph - N/A   Mist
12:55 AM 39.2 °F - 39.2 °F 100% 30.24 in 6.2 mi WSW 1.2 mph - N/A   Unknown
1:01 AM 39.2 °F - 39.2 °F 100% 30.24 in 3.7 mi West 1.2 mph - N/A   Mist
1:07 AM 39.2 °F - 39.2 °F 100% 30.24 in 1.1 mi WSW 1.2 mph - N/A   Mist
1:11 AM 39.2 °F - 39.2 °F 100% 30.24 in 0.7 mi SW 1.2 mph - N/A   Mist
1:12 AM 37.4 °F - 37.4 °F 100% 30.24 in 1.8 mi WSW 1.2 mph - N/A   Mist
1:25 AM 39.2 °F - 39.2 °F 100% 30.24 in 0.9 mi SW 2.3 mph - N/A   Mist
1:29 AM 37.4 °F - 37.4 °F 100% 30.24 in 0.4 mi SW 2.3 mph - N/A Fog Fog
1:33 AM 37.4 °F - 37.4 °F 100% 30.24 in 1.3 mi SW 2.3 mph - N/A   Mist
1:37 AM 39.2 °F - 37.4 °F 93% 30.24 in 0.8 mi WSW 2.3 mph - N/A   Mist
1:41 AM 39.2 °F - 37.4 °F 93% 30.24 in - SW 2.3 mph - N/A   Mist
1:55 AM 37.4 °F - 37.4 °F 100% 30.21 in - SW 1.2 mph - N/A   Overcast
2:06 AM 37.4 °F - 37.4 °F 100% 30.21 in 0.9 mi SSW 1.2 mph - N/A   Mist
2:10 AM 37.4 °F - 37.4 °F 100% 30.21 in - SW 2.3 mph - N/A Fog Fog
2:25 AM 37.4 °F - 37.4 °F 100% 30.21 in 6.2 mi WSW 1.2 mph - N/A   Partly Cloudy
2:29 AM 37.4 °F - 37.4 °F 100% 30.21 in 3.1 mi West 1.2 mph - N/A   Mist
2:33 AM 37.4 °F - 37.4 °F 100% 30.21 in - WSW 1.2 mph - N/A   Mist
2:39 AM 37.4 °F - 37.4 °F 100% 30.21 in - SW 1.2 mph - N/A   Mist
2:47 AM 37.4 °F - 37.4 °F 100% 30.21 in 0.9 mi WSW 1.2 mph - N/A   Mist
2:51 AM 37.4 °F - 37.4 °F 100% 30.21 in 5.0 mi WSW 1.2 mph - N/A   Mist
2:55 AM 37.4 °F - 37.4 °F 100% 30.21 in 6.2 mi WSW 1.2 mph - N/A   Unknown
3:07 AM 35.6 °F - 35.6 °F 100% 30.21 in 1.9 mi Calm Calm - N/A   Scattered Clouds
3:11 AM 35.6 °F - 35.6 °F 100% 30.21 in 0.7 mi Calm Calm - N/A   Scattered Clouds
3:15 AM 35.6 °F - 35.6 °F 100% 30.21 in - Calm Calm - N/A   Partly Cloudy
3:18 AM 37.4 °F - 35.6 °F 93% 30.21 in 3.7 mi WSW 1.2 mph - N/A   Partly Cloudy
3:25 AM 37.4 °F - 37.4 °F 100% 30.21 in 6.2 mi SW 1.2 mph - N/A   Unknown
3:38 AM 37.4 °F - 37.4 °F 100% 30.21 in 6.2 mi SW 1.2 mph - N/A   Unknown
3:46 AM 37.4 °F - 37.4 °F 100% 30.21 in 1.6 mi SW 2.3 mph - N/A   Mist
3:50 AM 37.4 °F - 37.4 °F 100% 30.21 in 6.2 mi WSW 2.3 mph - N/A   Unknown
3:55 AM 37.4 °F - 37.4 °F 100% 30.21 in 4.3 mi WSW 2.3 mph - N/A   Mist
3:59 AM 37.4 °F - 37.4 °F 100% 30.21 in 5.0 mi WSW 2.3 mph - N/A   Mist
4:04 AM 37.4 °F - 37.4 °F 100% 30.21 in 3.7 mi WSW 2.3 mph - N/A   Mist
4:08 AM 37.4 °F - 37.4 °F 100% 30.21 in 5.6 mi WSW 1.2 mph - N/A   Mist
4:18 AM 37.4 °F - 37.4 °F 100% 30.18 in 6.2 mi SSW 1.2 mph - N/A   Unknown
4:25 AM 37.4 °F - 37.4 °F 100% 30.18 in 6.2 mi SSW 1.2 mph - N/A   Unknown
4:47 AM 39.2 °F - 39.2 °F 100% 30.18 in 4.3 mi SSW 1.2 mph - N/A   Mist
4:55 AM 39.2 °F - 39.2 °F 100% 30.18 in 5.6 mi SSW 1.2 mph - N/A   Partly Cloudy
5:08 AM 37.4 °F - 37.4 °F 100% 30.18 in 6.2 mi Calm Calm - N/A   Unknown
5:17 AM 37.4 °F - 35.6 °F 93% 30.18 in 3.7 mi Calm Calm - N/A   Mist
5:19 AM 37.4 °F - 37.4 °F 100% 30.18 in - Calm Calm - N/A   Mist
5:25 AM 37.4 °F - 35.6 °F 93% 30.18 in 0.7 mi Calm Calm - N/A   Mist
5:29 AM 35.6 °F - 35.6 °F 100% 30.18 in 1.0 mi Calm Calm - N/A   Mist
5:33 AM 35.6 °F - 35.6 °F 100% 30.18 in 0.7 mi Calm Calm - N/A   Mist
5:45 AM 35.6 °F - 35.6 °F 100% 30.18 in 0.6 mi Calm Calm - N/A   Mist
5:55 AM 35.6 °F - 35.6 °F 100% 30.18 in 4.3 mi Calm Calm - N/A   Mist
5:59 AM 35.6 °F - 35.6 °F 100% 30.18 in 5.6 mi Calm Calm - N/A   Mist
6:00 AM 35.6 °F - 35.6 °F 100% 30.18 in 3.7 mi Calm Calm - N/A   Mist
6:06 AM 35.6 °F - 35.6 °F 100% 30.18 in 2.8 mi Calm Calm - N/A   Mist
6:08 AM 35.6 °F - 35.6 °F 100% 30.18 in 0.9 mi Calm Calm - N/A   Mist
6:14 AM 35.6 °F - 35.6 °F 100% 30.18 in - Calm Calm - N/A Fog Fog
6:20 AM 35.6 °F - 35.6 °F 100% 30.18 in 0.5 mi Calm Calm - N/A Fog Fog
6:25 AM 35.6 °F - 35.6 °F 100% 30.18 in 0.4 mi Calm Calm - N/A Fog Fog
6:27 AM 35.6 °F - 33.8 °F 93% 30.18 in 1.0 mi Calm Calm - N/A   Mist
6:30 AM 35.6 °F - 35.6 °F 100% 30.18 in 0.7 mi Calm Calm - N/A   Mist
6:47 AM 35.6 °F - 35.6 °F 100% 30.18 in 6.2 mi ENE 2.3 mph - N/A   Partly Cloudy
6:55 AM 35.6 °F - 35.6 °F 100% 30.18 in 1.4 mi ENE 2.3 mph - N/A   Mist
6:58 AM 35.6 °F - 35.6 °F 100% 30.18 in - ENE 2.3 mph - N/A   Mist
7:03 AM 35.6 °F - 35.6 °F 100% 30.15 in 5.6 mi ENE 2.3 mph - N/A   Mist
7:05 AM 35.6 °F - 35.6 °F 100% 30.15 in 1.1 mi ENE 2.3 mph - N/A   Mist
7:13 AM 33.8 °F 30.8 °F 32.0 °F 93% 30.15 in - ENE 3.5 mph - N/A   Mist
7:18 AM 33.8 °F 29.6 °F 33.8 °F 100% 30.15 in 1.7 mi ENE 4.6 mph - N/A   Mist
7:21 AM 33.8 °F 29.6 °F 33.8 °F 100% 30.15 in 0.5 mi ENE 4.6 mph - N/A Fog Fog
7:25 AM 33.8 °F 29.6 °F 33.8 °F 100% 30.15 in 0.4 mi ENE 4.6 mph - N/A Fog Fog
7:27 AM 33.8 °F 29.6 °F 33.8 °F 100% 30.15 in 0.5 mi ENE 4.6 mph - N/A Fog Fog
7:32 AM 33.8 °F 30.8 °F 33.8 °F 100% 30.15 in 0.2 mi ENE 3.5 mph - N/A Fog Fog
7:34 AM 33.8 °F - 33.8 °F 100% 30.15 in 0.6 mi ENE 2.3 mph - N/A   Mist
7:41 AM 35.6 °F - 35.6 °F 100% 30.15 in 0.4 mi ENE 2.3 mph - N/A Fog Fog
7:43 AM 35.6 °F - 35.6 °F 100% 30.15 in 0.6 mi ENE 1.2 mph - N/A Fog Fog
7:47 AM 35.6 °F - 35.6 °F 100% 30.15 in 0.4 mi NE 1.2 mph - N/A Fog Fog
7:55 AM 35.6 °F - 35.6 °F 100% 30.15 in - NE 1.2 mph - N/A Fog Fog
8:01 AM 35.6 °F - 35.6 °F 100% 30.15 in 0.7 mi NE 1.2 mph - N/A   Mist
8:14 AM 33.8 °F - 33.8 °F 100% 30.15 in 0.6 mi East 1.2 mph - N/A Fog Fog
8:18 AM 35.6 °F - 35.6 °F 100% 30.15 in 1.3 mi East 2.3 mph - N/A   Mist
8:25 AM 35.6 °F - 33.8 °F 93% 30.15 in 0.5 mi East 2.3 mph - N/A Fog Fog
8:26 AM 35.6 °F - 35.6 °F 100% 30.15 in 0.2 mi East 2.3 mph - N/A Fog Fog
8:39 AM 35.6 °F 32.8 °F 35.6 °F 100% 30.15 in 0.9 mi East 3.5 mph - N/A   Mist
8:42 AM 35.6 °F 32.8 °F 35.6 °F 100% 30.15 in 1.3 mi ENE 3.5 mph - N/A   Mist
8:48 AM 35.6 °F - 35.6 °F 100% 30.15 in 2.5 mi ENE 2.3 mph - N/A   Mist
8:55 AM 35.6 °F - 35.6 °F 100% 30.15 in 2.5 mi ENE 2.3 mph - N/A   Mist
9:06 AM 37.4 °F - 37.4 °F 100% 30.15 in - East 2.3 mph - N/A   Mist
9:11 AM 37.4 °F - 37.4 °F 100% 30.15 in 3.1 mi East 2.3 mph - N/A   Mist
9:16 AM 39.2 °F - 39.2 °F 100% 30.15 in - East 2.3 mph - N/A   Mist
9:20 AM 41.0 °F - 41.0 °F 100% 30.15 in 3.1 mi East 2.3 mph - N/A   Mist
9:25 AM 41.0 °F - 41.0 °F 100% 30.15 in 3.7 mi East 2.3 mph - N/A   Partly Cloudy
9:27 AM 41.0 °F - 41.0 °F 100% 30.15 in 5.0 mi ESE 2.3 mph - N/A   Mostly Cloudy
9:40 AM 42.8 °F 41.1 °F 42.8 °F 100% 30.15 in 6.2 mi SE 3.5 mph - N/A   Scattered Clouds
9:55 AM 44.6 °F 43.1 °F 44.6 °F 100% 30.15 in 6.2 mi SE 3.5 mph - N/A   Unknown
10:25 AM 48.2 °F - 46.4 °F 93% 30.12 in 6.2 mi ESE 3.5 mph - N/A   Unknown
10:55 AM 50.0 °F - 46.4 °F 87% 30.12 in 6.2 mi SE 4.6 mph - N/A   Unknown
11:25 AM 51.8 °F - 46.4 °F 82% 30.12 in 6.2 mi ESE 5.8 mph - N/A   Mostly Cloudy
11:55 AM 53.6 °F - 46.4 °F 77% 30.09 in 6.2 mi ESE 5.8 mph - N/A   Overcast
12:25 PM 53.6 °F - 44.6 °F 72% 30.09 in 6.2 mi SSE 6.9 mph - N/A   Overcast
12:55 PM 55.4 °F - 44.6 °F 67% 30.09 in 6.2 mi SSE 6.9 mph - N/A   Overcast
1:04 PM 55.4 °F - 44.6 °F 67% 30.09 in 6.2 mi SSE 8.1 mph - N/A   Overcast
1:25 PM 55.4 °F - 44.6 °F 67% 30.09 in 6.2 mi SSE 8.1 mph - N/A   Scattered Clouds
1:55 PM 55.4 °F - 42.8 °F 63% 30.06 in 6.2 mi ESE 8.1 mph - N/A   Mostly Cloudy
2:15 PM 55.4 °F - 44.6 °F 67% 30.04 in 6.2 mi ESE 8.1 mph - N/A   Overcast
2:25 PM 55.4 °F - 44.6 °F 67% 30.04 in 6.2 mi ESE 6.9 mph - N/A   Overcast
2:55 PM 55.4 °F - 41.0 °F 58% 30.04 in 6.2 mi SSE 8.1 mph - N/A   Overcast
3:25 PM 55.4 °F - 41.0 °F 58% 30.04 in 6.2 mi SE 8.1 mph - N/A   Overcast
3:55 PM 55.4 °F - 41.0 °F 58% 30.01 in 6.2 mi SE 6.9 mph - N/A   Overcast
4:02 PM 55.4 °F - 42.8 °F 63% 30.01 in 6.2 mi ESE 6.9 mph - N/A   Overcast
4:25 PM 55.4 °F - 41.0 °F 58% 30.01 in 6.2 mi ESE 8.1 mph - N/A   Overcast
4:55 PM 55.4 °F - 42.8 °F 63% 29.98 in 6.2 mi ESE 8.1 mph - N/A   Overcast
5:25 PM 53.6 °F - 44.6 °F 72% 29.95 in 6.2 mi ESE 6.9 mph - N/A   Mostly Cloudy
5:55 PM 53.6 °F - 44.6 °F 72% 29.95 in 6.2 mi ESE 4.6 mph - N/A   Overcast
6:25 PM 53.6 °F - 44.6 °F 72% 29.92 in 6.2 mi ESE 4.6 mph - N/A   Overcast
6:55 PM 51.8 °F - 46.4 °F 82% 29.92 in 6.2 mi East 4.6 mph - N/A   Overcast
7:25 PM 50.0 °F - 46.4 °F 87% 29.92 in 6.2 mi East 3.5 mph - N/A   Mostly Cloudy
7:55 PM 50.0 °F - 44.6 °F 82% 29.92 in 6.2 mi ENE 4.6 mph - N/A   Mostly Cloudy
8:25 PM 50.0 °F - 44.6 °F 82% 29.92 in 6.2 mi ESE 4.6 mph - N/A   Overcast
8:55 PM 50.0 °F - 44.6 °F 82% 29.89 in 6.2 mi East 3.5 mph - N/A   Mostly Cloudy
9:25 PM 50.0 °F - 44.6 °F 82% 29.89 in 6.2 mi East 2.3 mph - N/A   Mostly Cloudy
9:55 PM 50.0 °F - 46.4 °F 87% 29.89 in 6.2 mi NE 3.5 mph - N/A   Overcast
10:25 PM 50.0 °F - 46.4 °F 87% 29.89 in 6.2 mi NE 3.5 mph - N/A   Overcast
11:14 PM 48.2 °F - 46.4 °F 93% 29.86 in 6.2 mi NNE 2.3 mph - N/A   Overcast
11:25 PM 48.2 °F - 46.4 °F 93% 29.86 in 6.2 mi NNE 3.5 mph - N/A   Overcast
11:55 PM 48.2 °F - 46.4 °F 93% 29.86 in 6.2 mi NE 1.2 mph - N/A   Overcast